This demonstration page uses our WeatherBlox Daily Observations layout. Learn more.

Left ArrowRight Arrow

40.92501, -98.34201

Hourly Observations for June 22, 2020

Temp ( °F °C ) Dew Point ( °F °C ) Humidity (%) Winds ( mph kmh ) Pressure ( in mb ) Visibility ( mi km ) Precip ( " mm )
12:53 am 00:53 Clear 68 20 61 16.1 78 78 NW 9 15 29.80 1009 10 16 0.00 0.00
1:53 am 01:53 Clear 68 20 63 17.2 84 84 W 9 15 29.81 1010 10 16 0.00 0.00
2:53 am 02:53 Partly Cloudy 69 20.6 64 17.8 84 84 NW 9 15 29.81 1010 9 14 0.00 0.00
3:53 am 03:53 Cloudy 69 20.6 61 16.1 76 76 N 7 11 29.82 1010 10 16 0.00 0.00
4:53 am 04:53 Partly Cloudy 68 20 60 15.6 76 76 NNW 6 9 29.83 1010 10 16 0.00 0.00
5:53 am 05:53 Mostly Cloudy 65 18.3 60 15.6 84 84 NNW 8 13 29.85 1011 10 16 0.00 0.00
6:53 am 06:53 Mostly Cloudy 67 19.4 60 15.6 79 79 NW 10 17 29.88 1012 10 16 0.00 0.00
7:53 am 07:53 Mostly Cloudy 70 21.1 61 16.1 73 73 N 8 13 29.90 1013 10 16 0.00 0.00
8:53 am 08:53 Cloudy 72 22.2 61 16.1 68 68 N 8 13 29.91 1013 10 16 0.00 0.00
9:53 am 09:53 Mostly Sunny 75 23.9 59 15 58 58 N 7 11 29.92 1013 10 16 0.00 0.00
10:53 am 10:53 Sunny 78 25.6 58 14.4 50 50 NNW 6 9 29.92 1013 10 16 0.00 0.00
11:53 am 11:53 Mostly Sunny 80 26.7 58 14.4 47 47 NW 8 13 29.92 1013 10 16 0.00 0.00
12:53 pm 12:53 Mostly Sunny 83 28.3 59 15 44 44 WNW 7 11 29.92 1013 10 16 0.00 0.00
1:53 pm 13:53 Mostly Sunny 85 29.4 57 13.9 39 39 WNW 13 20 29.90 1013 10 16 0.00 0.00
2:53 pm 14:53 Mostly Cloudy 84 28.9 58 14.4 41 41 NNE 9 15 29.89 1012 10 16 0.00 0.00
3:53 pm 15:53 Sunny 85 29.4 56 13.3 37 37 NW 15 24 29.88 1012 10 16 0.00 0.00
4:45 pm 16:45 Mostly Cloudy with Haze 75 23.9 56 13.3 52 52 NNE 24 39 29.88 1012 6 10 0.00 0.00
4:53 pm 16:53 Partly Cloudy 75 23.9 56 13.3 52 52 NNE 21 33 29.93 1014 10 16 0.00 0.00
5:53 pm 17:53 Partly Cloudy 74 23.3 56 13.3 54 54 NNE 15 24 29.94 1014 10 16 0.00 0.00
6:53 pm 18:53 Sunny 73 22.8 57 13.9 57 57 NNE 13 20 29.94 1014 10 16 0.00 0.00
7:53 pm 19:53 Sunny 70 21.1 58 14.4 66 66 NNE 7 11 29.98 1015 10 16 0.00 0.00
8:53 pm 20:53 Mostly Cloudy with Light Rain 69 20.6 59 15 70 70 NNW 7 11 29.98 1015 8 13 0.00 0.00
9:53 pm 21:53 Clear 66 18.9 60 15.6 81 81 N 9 15 29.99 1016 10 16 0.02 0.51
10:53 pm 22:53 Clear 64 17.8 59 15 84 84 N 7 11 30.00 1016 10 16 0.00 0.00
11:53 pm 23:53 Clear 64 17.8 58 14.4 81 81 NNW 7 11 30.01 1016 10 16 0.00 0.00

Powered by AerisWeather